Time,TemperatureF,DewpointF,PressureIn,WindDirection,WindDirectionDegrees,WindSpeedMPH,WindSpeedGustMPH,Humidity,HourlyPrecipIn,Conditions,Clouds,dailyrainin,SoftwareType,DateUTC
2013-08-22 00:01:00,62.4,33.8,29.82,WSW,241,0.0,0.0,34,0.00,,,0.00,WUHU216WMR968SP,2013-08-22 07:01:00,
2013-08-22 00:06:00,62.4,33.8,29.82,WSW,241,0.0,0.0,35,0.00,,,0.00,WUHU216WMR968SP,2013-08-22 07:06:00,
2013-08-22 00:11:00,62.2,33.8,29.82,WSW,241,0.0,0.0,35,0.00,,,0.00,WUHU216WMR968SP,2013-08-22 07:11:00,
2013-08-22 00:16:00,62.2,33.8,29.82,WSW,241,0.0,0.0,35,0.00,,,0.00,WUHU216WMR968SP,2013-08-22 07:16:00,
2013-08-22 00:21:00,62.2,33.8,29.82,WSW,241,0.0,0.0,35,0.00,,,0.00,WUHU216WMR968SP,2013-08-22 07:21:00,
2013-08-22 00:27:00,62.1,33.8,29.82,WSW,241,0.0,0.0,35,0.00,,,0.00,WUHU216WMR968SP,2013-08-22 07:27:00,
2013-08-22 00:32:00,61.9,33.8,29.82,WSW,241,0.0,0.0,35,0.00,,,0.00,WUHU216WMR968SP,2013-08-22 07:32:00,
2013-08-22 00:37:00,61.9,33.8,29.82,WSW,241,0.0,0.0,35,0.00,,,0.00,WUHU216WMR968SP,2013-08-22 07:37:00,
2013-08-22 00:42:00,61.7,33.8,29.82,WSW,241,0.0,0.0,35,0.00,,,0.00,WUHU216WMR968SP,2013-08-22 07:42:00,
2013-08-22 00:47:00,61.7,33.8,29.82,WSW,241,0.0,0.0,35,0.00,,,0.00,WUHU216WMR968SP,2013-08-22 07:47:00,
2013-08-22 00:52:00,61.7,33.8,29.82,WSW,241,0.0,0.0,35,0.00,,,0.00,WUHU216WMR968SP,2013-08-22 07:52:00,
2013-08-22 00:57:00,61.7,35.6,29.82,WSW,241,0.0,0.0,36,0.00,,,0.00,WUHU216WMR968SP,2013-08-22 07:57:00,
2013-08-22 01:02:00,61.7,33.8,29.82,WSW,241,0.0,0.0,35,0.00,,,0.00,WUHU216WMR968SP,2013-08-22 08:02:00,
2013-08-22 01:07:00,61.5,33.8,29.82,WSW,241,0.0,0.0,36,0.00,,,0.00,WUHU216WMR968SP,2013-08-22 08:07:00,
2013-08-22 01:12:00,61.5,33.8,29.82,WSW,241,0.0,0.0,36,0.00,,,0.00,WUHU216WMR968SP,2013-08-22 08:12:00,
2013-08-22 01:17:00,61.5,33.8,29.82,WSW,241,0.0,0.0,36,0.00,,,0.00,WUHU216WMR968SP,2013-08-22 08:17:00,
2013-08-22 01:22:00,61.3,33.8,29.82,WSW,241,0.0,0.0,36,0.00,,,0.00,WUHU216WMR968SP,2013-08-22 08:22:00,
2013-08-22 01:27:00,61.3,33.8,29.82,WSW,241,0.0,0.0,36,0.00,,,0.00,WUHU216WMR968SP,2013-08-22 08:27:00,
2013-08-22 01:32:00,61.2,33.8,29.82,WSW,241,0.0,0.0,36,0.00,,,0.00,WUHU216WMR968SP,2013-08-22 08:32:00,
2013-08-22 01:37:00,61.0,33.8,29.82,WSW,241,0.0,0.0,36,0.00,,,0.00,WUHU216WMR968SP,2013-08-22 08:37:00,
2013-08-22 01:42:00,61.0,33.8,29.82,WSW,241,0.0,0.0,37,0.00,,,0.00,WUHU216WMR968SP,2013-08-22 08:42:00,
2013-08-22 01:47:00,61.0,33.8,29.82,WSW,241,0.0,0.0,36,0.00,,,0.00,WUHU216WMR968SP,2013-08-22 08:47:00,
2013-08-22 01:52:00,60.8,33.8,29.82,WSW,241,0.0,0.0,37,0.00,,,0.00,WUHU216WMR968SP,2013-08-22 08:52:00,
2013-08-22 01:57:00,60.6,33.8,29.82,WSW,241,0.0,0.0,37,0.00,,,0.00,WUHU216WMR968SP,2013-08-22 08:57:00,
2013-08-22 02:02:00,60.6,33.8,29.82,WSW,241,0.0,0.0,37,0.00,,,0.00,WUHU216WMR968SP,2013-08-22 09:02:00,
2013-08-22 02:07:00,60.6,33.8,29.82,WSW,241,0.0,0.0,37,0.00,,,0.00,WUHU216WMR968SP,2013-08-22 09:07:00,
2013-08-22 02:12:00,60.4,33.8,29.82,WSW,241,0.0,0.0,37,0.00,,,0.00,WUHU216WMR968SP,2013-08-22 09:12:00,
2013-08-22 02:17:00,60.4,33.8,29.82,WSW,241,0.0,0.0,37,0.00,,,0.00,WUHU216WMR968SP,2013-08-22 09:17:00,
2013-08-22 02:22:00,60.3,35.6,29.79,WSW,241,0.0,0.0,38,0.00,,,0.00,WUHU216WMR968SP,2013-08-22 09:22:00,
2013-08-22 02:27:00,60.1,35.6,29.79,WSW,241,0.0,0.0,38,0.00,,,0.00,WUHU216WMR968SP,2013-08-22 09:27:00,
2013-08-22 02:32:00,60.1,35.6,29.79,WSW,241,0.0,0.0,38,0.00,,,0.00,WUHU216WMR968SP,2013-08-22 09:32:00,
2013-08-22 02:37:00,59.9,35.6,29.82,WSW,241,0.0,0.0,38,0.00,,,0.00,WUHU216WMR968SP,2013-08-22 09:37:00,
2013-08-22 02:42:00,59.7,33.8,29.82,WSW,241,0.0,0.0,39,0.00,,,0.00,WUHU216WMR968SP,2013-08-22 09:42:00,
2013-08-22 02:47:00,59.5,33.8,29.82,WSW,241,0.0,0.0,39,0.00,,,0.00,WUHU216WMR968SP,2013-08-22 09:47:00,
2013-08-22 02:52:00,59.5,33.8,29.82,WSW,241,0.0,0.0,39,0.00,,,0.00,WUHU216WMR968SP,2013-08-22 09:52:00,
2013-08-22 03:35:00,59.4,35.6,29.82,WSW,241,0.0,0.0,41,0.00,,,0.00,WUHU216WMR968SP,2013-08-22 10:35:00,
2013-08-22 03:40:00,59.4,35.6,29.82,WSW,241,0.0,0.0,41,0.00,,,0.00,WUHU216WMR968SP,2013-08-22 10:40:00,
2013-08-22 03:45:00,59.4,35.6,29.82,WSW,241,0.0,0.0,41,0.00,,,0.00,WUHU216WMR968SP,2013-08-22 10:45:00,
2013-08-22 03:50:00,59.4,35.6,29.82,WSW,241,0.0,0.0,41,0.00,,,0.00,WUHU216WMR968SP,2013-08-22 10:50:00,
2013-08-22 03:56:00,59.4,35.6,29.82,WSW,241,0.0,0.0,41,0.00,,,0.00,WUHU216WMR968SP,2013-08-22 10:56:00,
2013-08-22 04:02:00,59.4,35.6,29.82,WSW,241,0.0,0.0,41,0.00,,,0.00,WUHU216WMR968SP,2013-08-22 11:02:00,
2013-08-22 04:08:00,59.4,35.6,29.82,WSW,241,0.0,0.0,41,0.00,,,0.00,WUHU216WMR968SP,2013-08-22 11:08:00,
2013-08-22 04:14:00,59.5,35.6,29.82,WSW,241,0.0,0.0,41,0.00,,,0.00,WUHU216WMR968SP,2013-08-22 11:14:00,
2013-08-22 04:20:00,59.5,35.6,29.82,WSW,241,0.0,0.0,41,0.00,,,0.00,WUHU216WMR968SP,2013-08-22 11:20:00,
2013-08-22 04:25:00,59.5,35.6,29.82,WSW,241,0.0,0.0,41,0.00,,,0.00,WUHU216WMR968SP,2013-08-22 11:25:00,
2013-08-22 04:32:00,59.5,35.6,29.82,WSW,241,0.0,0.0,41,0.00,,,0.00,WUHU216WMR968SP,2013-08-22 11:32:00,
2013-08-22 04:36:00,59.5,35.6,29.82,WSW,241,0.0,0.0,41,0.00,,,0.00,WUHU216WMR968SP,2013-08-22 11:36:00,
2013-08-22 04:42:00,59.5,35.6,29.82,WSW,241,0.0,0.0,41,0.00,,,0.00,WUHU216WMR968SP,2013-08-22 11:42:00,
2013-08-22 04:47:00,59.7,35.6,29.82,WSW,241,0.0,0.0,41,0.00,,,0.00,WUHU216WMR968SP,2013-08-22 11:47:00,
2013-08-22 04:53:00,59.7,35.6,29.82,WSW,241,0.0,0.0,41,0.00,,,0.00,WUHU216WMR968SP,2013-08-22 11:53:00,
2013-08-22 05:00:00,59.7,35.6,29.82,WSW,241,0.0,0.0,41,0.00,,,0.00,WUHU216WMR968SP,2013-08-22 12:00:00,
2013-08-22 05:05:00,59.7,35.6,29.82,WSW,241,0.0,0.0,41,0.00,,,0.00,WUHU216WMR968SP,2013-08-22 12:05:00,
2013-08-22 05:11:00,59.7,35.6,29.82,WSW,241,0.0,0.0,42,0.00,,,0.00,WUHU216WMR968SP,2013-08-22 12:11:00,
2013-08-22 05:17:00,59.7,35.6,29.82,WSW,241,0.0,0.0,42,0.00,,,0.00,WUHU216WMR968SP,2013-08-22 12:17:00,
2013-08-22 05:27:00,59.9,37.4,29.82,WSW,237,0.0,0.0,41,0.00,,,0.00,WUHU216WMR968SP,2013-08-22 12:27:00,
2013-08-22 05:32:00,59.9,37.4,29.82,WSW,237,0.0,0.0,41,0.00,,,0.00,WUHU216WMR968SP,2013-08-22 12:32:00,
2013-08-22 05:37:00,60.1,37.4,29.82,WSW,237,0.0,0.0,41,0.00,,,0.00,WUHU216WMR968SP,2013-08-22 12:37:00,
2013-08-22 05:42:00,60.1,37.4,29.82,SW,224,0.0,0.0,41,0.00,,,0.00,WUHU216WMR968SP,2013-08-22 12:42:00,
2013-08-22 05:47:00,59.7,35.6,29.82,SW,224,0.0,0.0,40,0.00,,,0.00,WUHU216WMR968SP,2013-08-22 12:47:00,
2013-08-22 05:52:00,59.9,37.4,29.82,SW,224,0.0,0.0,41,0.00,,,0.00,WUHU216WMR968SP,2013-08-22 12:52:00,
2013-08-22 06:00:00,60.1,37.4,29.82,SW,224,0.0,0.0,41,0.00,,,0.00,WUHU216WMR968SP,2013-08-22 13:00:00,
2013-08-22 06:01:00,60.1,37.4,29.82,SW,224,0.0,0.0,41,0.00,,,0.00,WUHU216WMR968SP,2013-08-22 13:01:00,
2013-08-22 06:06:00,60.1,37.4,29.82,SW,224,0.0,0.0,41,0.00,,,0.00,WUHU216WMR968SP,2013-08-22 13:06:00,
2013-08-22 06:11:00,60.3,37.4,29.82,SW,224,0.0,0.0,42,0.00,,,0.00,WUHU216WMR968SP,2013-08-22 13:11:00,
2013-08-22 06:16:00,60.4,37.4,29.82,SW,224,0.0,0.0,42,0.00,,,0.00,WUHU216WMR968SP,2013-08-22 13:16:00,
2013-08-22 06:21:00,60.4,37.4,29.82,WSW,239,0.0,0.0,41,0.00,,,0.00,WUHU216WMR968SP,2013-08-22 13:21:00,
2013-08-22 06:26:00,60.4,37.4,29.82,ESE,118,0.0,3.6,41,0.00,,,0.00,WUHU216WMR968SP,2013-08-22 13:26:00,
2013-08-22 06:31:00,60.4,37.4,29.82,ESE,118,0.0,3.6,41,0.00,,,0.00,WUHU216WMR968SP,2013-08-22 13:31:00,
2013-08-22 06:36:00,60.4,37.4,29.82,ESE,118,0.0,0.0,41,0.00,,,0.00,WUHU216WMR968SP,2013-08-22 13:36:00,
2013-08-22 06:41:00,60.6,37.4,29.82,ESE,118,0.0,0.0,41,0.00,,,0.00,WUHU216WMR968SP,2013-08-22 13:41:00,
2013-08-22 06:46:00,61.0,35.6,29.82,ESE,118,0.0,0.0,40,0.00,,,0.00,WUHU216WMR968SP,2013-08-22 13:46:00,
2013-08-22 06:51:00,61.2,35.6,29.82,ESE,118,0.0,0.0,40,0.00,,,0.00,WUHU216WMR968SP,2013-08-22 13:51:00,
2013-08-22 06:56:00,61.2,35.6,29.82,ESE,118,0.0,0.0,40,0.00,,,0.00,WUHU216WMR968SP,2013-08-22 13:56:00,
2013-08-22 07:01:00,61.3,35.6,29.82,ESE,119,0.0,0.0,40,0.00,,,0.00,WUHU216WMR968SP,2013-08-22 14:01:00,
2013-08-22 07:06:00,61.3,35.6,29.82,ESE,116,0.0,0.0,40,0.00,,,0.00,WUHU216WMR968SP,2013-08-22 14:06:00,
2013-08-22 07:11:00,61.5,35.6,29.82,ESE,116,0.0,0.0,39,0.00,,,0.00,WUHU216WMR968SP,2013-08-22 14:11:00,
2013-08-22 07:16:00,61.5,35.6,29.82,ESE,115,0.0,0.0,39,0.00,,,0.00,WUHU216WMR968SP,2013-08-22 14:16:00,
2013-08-22 07:21:00,62.1,37.4,29.82,ESE,115,0.0,0.0,39,0.00,,,0.00,WUHU216WMR968SP,2013-08-22 14:21:00,
2013-08-22 07:26:00,62.6,37.4,29.82,ESE,116,0.0,0.0,38,0.00,,,0.00,WUHU216WMR968SP,2013-08-22 14:26:00,
2013-08-22 07:31:00,63.0,37.4,29.82,ESE,116,0.0,0.0,38,0.00,,,0.00,WUHU216WMR968SP,2013-08-22 14:31:00,
2013-08-22 07:36:00,63.1,35.6,29.82,ESE,109,3.6,5.4,36,0.00,,,0.00,WUHU216WMR968SP,2013-08-22 14:36:00,
2013-08-22 07:41:00,63.3,35.6,29.82,ESE,109,0.0,5.4,36,0.00,,,0.00,WUHU216WMR968SP,2013-08-22 14:41:00,
2013-08-22 07:46:00,64.0,37.4,29.82,ESE,109,0.0,3.6,36,0.00,,,0.00,WUHU216WMR968SP,2013-08-22 14:46:00,
2013-08-22 07:51:00,64.8,35.6,29.82,SE,142,0.0,0.0,34,0.00,,,0.00,WUHU216WMR968SP,2013-08-22 14:51:00,
2013-08-22 07:56:00,65.5,35.6,29.82,SE,142,0.0,0.0,33,0.00,,,0.00,WUHU216WMR968SP,2013-08-22 14:56:00,
2013-08-22 08:02:00,66.0,35.6,29.82,SE,142,0.0,0.0,33,0.00,,,0.00,WUHU216WMR968SP,2013-08-22 15:02:00,
2013-08-22 08:07:00,66.4,35.6,29.82,SE,141,0.0,0.0,33,0.00,,,0.00,WUHU216WMR968SP,2013-08-22 15:07:00,
2013-08-22 08:12:00,66.9,33.8,29.82,SE,142,0.0,0.0,30,0.00,,,0.00,WUHU216WMR968SP,2013-08-22 15:12:00,
2013-08-22 08:17:00,67.5,33.8,29.82,SE,142,0.0,0.0,29,0.00,,,0.00,WUHU216WMR968SP,2013-08-22 15:17:00,
2013-08-22 08:22:00,68.0,32.0,29.82,SE,142,0.0,0.0,27,0.00,,,0.00,WUHU216WMR968SP,2013-08-22 15:22:00,
2013-08-22 08:27:00,68.2,33.8,29.82,SE,141,0.0,0.0,29,0.00,,,0.00,WUHU216WMR968SP,2013-08-22 15:27:00,
2013-08-22 08:32:00,68.2,32.0,29.82,SE,141,0.0,0.0,27,0.00,,,0.00,WUHU216WMR968SP,2013-08-22 15:32:00,
2013-08-22 08:37:00,68.4,32.0,29.82,SE,142,0.0,0.0,26,0.00,,,0.00,WUHU216WMR968SP,2013-08-22 15:37:00,
2013-08-22 08:42:00,68.5,32.0,29.82,SE,141,0.0,0.0,26,0.00,,,0.00,WUHU216WMR968SP,2013-08-22 15:42:00,
2013-08-22 08:47:00,68.7,31.3,29.82,SE,141,0.0,0.0,25,0.00,,,0.00,WUHU216WMR968SP,2013-08-22 15:47:00,
2013-08-22 08:52:00,68.9,32.0,29.82,SE,140,0.0,0.0,25,0.00,,,0.00,WUHU216WMR968SP,2013-08-22 15:52:00,
2013-08-22 08:57:00,68.7,31.3,29.82,SE,140,0.0,0.0,25,0.00,,,0.00,WUHU216WMR968SP,2013-08-22 15:57:00,
2013-08-22 09:02:00,68.9,32.0,29.82,SE,141,0.0,0.0,24,0.00,,,0.00,WUHU216WMR968SP,2013-08-22 16:02:00,
2013-08-22 09:07:00,68.9,32.0,29.82,SE,140,0.0,0.0,25,0.00,,,0.00,WUHU216WMR968SP,2013-08-22 16:07:00,
2013-08-22 09:12:00,68.5,31.1,29.82,SE,140,0.0,0.0,25,0.00,,,0.00,WUHU216WMR968SP,2013-08-22 16:12:00,
2013-08-22 09:17:00,68.7,31.3,29.82,SE,141,0.0,0.0,25,0.00,,,0.00,WUHU216WMR968SP,2013-08-22 16:17:00,
2013-08-22 09:22:00,68.9,32.0,29.82,SE,141,0.0,0.0,25,0.00,,,0.00,WUHU216WMR968SP,2013-08-22 16:22:00,
2013-08-22 09:27:00,69.3,32.0,29.82,SE,139,0.0,2.7,24,0.00,,,0.00,WUHU216WMR968SP,2013-08-22 16:27:00,
2013-08-22 09:32:00,69.8,32.0,29.82,SE,140,0.0,2.7,24,0.00,,,0.00,WUHU216WMR968SP,2013-08-22 16:32:00,
2013-08-22 09:37:00,70.5,30.8,29.82,SE,139,0.0,0.0,23,0.00,,,0.00,WUHU216WMR968SP,2013-08-22 16:37:00,
2013-08-22 09:42:00,70.7,32.0,29.82,SE,139,0.0,0.0,23,0.00,,,0.00,WUHU216WMR968SP,2013-08-22 16:42:00,
2013-08-22 09:47:00,71.1,32.0,29.82,SE,138,0.0,0.0,23,0.00,,,0.00,WUHU216WMR968SP,2013-08-22 16:47:00,
2013-08-22 09:52:00,71.6,30.7,29.82,SE,139,0.0,0.0,22,0.00,,,0.00,WUHU216WMR968SP,2013-08-22 16:52:00,
2013-08-22 09:57:00,72.5,32.0,29.82,SE,139,0.0,0.0,22,0.00,,,0.00,WUHU216WMR968SP,2013-08-22 16:57:00,
2013-08-22 10:02:00,73.2,32.0,29.82,NW,310,2.7,4.0,21,0.00,,,0.00,WUHU216WMR968SP,2013-08-22 17:02:00,
2013-08-22 10:07:00,73.6,32.0,29.82,NW,311,0.0,4.0,21,0.00,,,0.00,WUHU216WMR968SP,2013-08-22 17:07:00,
2013-08-22 10:12:00,74.3,32.0,29.82,NW,311,0.0,2.7,21,0.00,,,0.00,WUHU216WMR968SP,2013-08-22 17:12:00,
2013-08-22 10:17:00,74.5,32.0,29.82,North,353,0.0,3.1,21,0.00,,,0.00,WUHU216WMR968SP,2013-08-22 17:17:00,
2013-08-22 10:22:00,74.7,32.0,29.82,WSW,238,0.0,3.1,21,0.00,,,0.00,WUHU216WMR968SP,2013-08-22 17:22:00,
2013-08-22 10:27:00,74.5,32.0,29.82,WSW,238,0.0,0.0,21,0.00,,,0.00,WUHU216WMR968SP,2013-08-22 17:27:00,
2013-08-22 10:32:00,74.1,32.0,29.82,NW,304,2.7,3.6,21,0.00,,,0.00,WUHU216WMR968SP,2013-08-22 17:32:00,
2013-08-22 10:37:00,73.8,32.0,29.82,WNW,288,3.1,5.4,21,0.00,,,0.00,WUHU216WMR968SP,2013-08-22 17:37:00,
2013-08-22 10:42:00,73.2,32.0,29.82,WSW,257,0.0,5.4,22,0.00,,,0.00,WUHU216WMR968SP,2013-08-22 17:42:00,
2013-08-22 10:47:00,72.9,32.0,29.82,West,260,4.0,5.4,22,0.00,,,0.00,WUHU216WMR968SP,2013-08-22 17:47:00,
2013-08-22 10:52:00,72.9,32.0,29.82,SW,227,0.0,5.4,22,0.00,,,0.00,WUHU216WMR968SP,2013-08-22 17:52:00,
2013-08-22 10:57:00,73.0,32.0,29.82,NW,322,3.1,4.9,22,0.00,,,0.00,WUHU216WMR968SP,2013-08-22 17:57:00,
2013-08-22 11:02:00,73.0,32.0,29.82,SW,221,0.0,4.9,22,0.00,,,0.00,WUHU216WMR968SP,2013-08-22 18:02:00,
2013-08-22 11:07:00,73.0,32.0,29.82,SSW,209,0.0,4.0,22,0.00,,,0.00,WUHU216WMR968SP,2013-08-22 18:07:00,
2013-08-22 11:12:00,73.2,32.0,29.82,SW,229,0.0,5.4,22,0.00,,,0.00,WUHU216WMR968SP,2013-08-22 18:12:00,
2013-08-22 11:17:00,73.2,32.0,29.82,NW,304,0.0,5.4,22,0.00,,,0.00,WUHU216WMR968SP,2013-08-22 18:17:00,
2013-08-22 11:22:00,73.4,32.0,29.82,NW,305,0.0,4.9,21,0.00,,,0.00,WUHU216WMR968SP,2013-08-22 18:22:00,
2013-08-22 11:27:00,74.3,32.0,29.82,SW,224,0.0,0.0,21,0.00,,,0.00,WUHU216WMR968SP,2013-08-22 18:27:00,
2013-08-22 11:32:00,74.8,32.0,29.82,SW,217,2.7,3.1,21,0.00,,,0.00,WUHU216WMR968SP,2013-08-22 18:32:00,
2013-08-22 11:37:00,75.0,32.0,29.82,SSW,203,0.0,3.1,21,0.00,,,0.00,WUHU216WMR968SP,2013-08-22 18:37:00,
2013-08-22 11:42:00,75.7,32.0,29.82,SSW,200,0.0,3.1,21,0.00,,,0.00,WUHU216WMR968SP,2013-08-22 18:42:00,
2013-08-22 11:47:00,76.5,33.8,29.82,SSW,192,0.0,3.1,20,0.00,,,0.00,WUHU216WMR968SP,2013-08-22 18:47:00,
2013-08-22 11:52:00,77.5,33.8,29.82,ESE,119,0.0,0.0,20,0.00,,,0.00,WUHU216WMR968SP,2013-08-22 18:52:00,
2013-08-22 11:57:00,78.1,32.0,29.82,ESE,116,0.0,3.1,18,0.00,,,0.00,WUHU216WMR968SP,2013-08-22 18:57:00,
2013-08-22 12:02:00,78.4,32.0,29.82,ENE,77,0.0,3.1,18,0.00,,,0.00,WUHU216WMR968SP,2013-08-22 19:02:00,
2013-08-22 12:07:00,78.3,32.0,29.82,East,90,0.0,2.7,18,0.00,,,0.00,WUHU216WMR968SP,2013-08-22 19:07:00,
2013-08-22 12:12:00,78.6,32.0,29.82,East,91,0.0,2.7,18,0.00,,,0.00,WUHU216WMR968SP,2013-08-22 19:12:00,
2013-08-22 12:17:00,78.8,30.3,29.82,East,91,0.0,0.0,17,0.00,,,0.00,WUHU216WMR968SP,2013-08-22 19:17:00,
2013-08-22 12:22:00,79.2,30.6,29.82,NW,311,2.7,4.9,17,0.00,,,0.00,WUHU216WMR968SP,2013-08-22 19:22:00,
2013-08-22 12:27:00,79.2,30.6,29.82,NW,325,0.0,4.9,17,0.00,,,0.00,WUHU216WMR968SP,2013-08-22 19:27:00,
2013-08-22 12:32:00,79.2,30.6,29.82,East,90,0.0,4.5,17,0.00,,,0.00,WUHU216WMR968SP,2013-08-22 19:32:00,
2013-08-22 12:37:00,79.5,30.8,29.82,NW,323,0.0,2.7,17,0.00,,,0.00,WUHU216WMR968SP,2013-08-22 19:37:00,
2013-08-22 12:42:00,79.9,32.0,29.82,ESE,115,0.0,3.6,17,0.00,,,0.00,WUHU216WMR968SP,2013-08-22 19:42:00,
2013-08-22 12:47:00,80.1,32.0,29.82,ESE,121,0.0,3.6,17,0.00,,,0.00,WUHU216WMR968SP,2013-08-22 19:47:00,
2013-08-22 12:52:00,80.2,32.0,29.82,ESE,121,0.0,0.0,17,0.00,,,0.00,WUHU216WMR968SP,2013-08-22 19:52:00,
2013-08-22 12:57:00,80.4,32.0,29.82,ESE,119,0.0,0.0,17,0.00,,,0.00,WUHU216WMR968SP,2013-08-22 19:57:00,
2013-08-22 13:02:00,80.8,32.0,29.82,SW,234,0.0,4.0,17,0.00,,,0.00,WUHU216WMR968SP,2013-08-22 20:02:00,
2013-08-22 13:07:00,81.5,33.8,29.82,SW,219,0.0,4.0,17,0.00,,,0.00,WUHU216WMR968SP,2013-08-22 20:07:00,
2013-08-22 13:12:00,82.2,33.8,29.82,ENE,78,0.0,4.0,17,0.00,,,0.00,WUHU216WMR968SP,2013-08-22 20:12:00,
2013-08-22 13:17:00,82.4,28.3,29.82,ESE,114,2.7,5.4,14,0.00,,,0.00,WUHU216WMR968SP,2013-08-22 20:17:00,
2013-08-22 13:22:00,82.4,32.0,29.82,ESE,114,0.0,5.4,16,0.00,,,0.00,WUHU216WMR968SP,2013-08-22 20:22:00,
2013-08-22 13:27:00,82.8,28.6,29.82,East,90,0.0,3.6,14,0.00,,,0.00,WUHU216WMR968SP,2013-08-22 20:27:00,
2013-08-22 13:32:00,82.8,28.6,29.82,East,80,0.0,4.0,14,0.00,,,0.00,WUHU216WMR968SP,2013-08-22 20:32:00,
2013-08-22 13:37:00,82.6,32.0,29.82,East,81,0.0,4.0,16,0.00,,,0.00,WUHU216WMR968SP,2013-08-22 20:37:00,
2013-08-22 13:42:00,82.6,32.0,29.82,ESE,112,2.2,3.6,16,0.00,,,0.00,WUHU216WMR968SP,2013-08-22 20:42:00,
2013-08-22 13:47:00,83.1,32.0,29.82,East,87,0.0,3.6,16,0.00,,,0.00,WUHU216WMR968SP,2013-08-22 20:47:00,
2013-08-22 13:52:00,82.8,28.6,29.82,SW,235,0.0,5.4,14,0.00,,,0.00,WUHU216WMR968SP,2013-08-22 20:52:00,
2013-08-22 13:57:00,82.2,28.2,29.82,WSW,253,2.2,5.4,14,0.00,,,0.00,WUHU216WMR968SP,2013-08-22 20:57:00,
2013-08-22 14:02:00,81.7,27.8,29.82,SW,215,2.2,5.4,14,0.00,,,0.00,WUHU216WMR968SP,2013-08-22 21:02:00,
2013-08-22 14:07:00,81.7,27.8,29.82,West,259,2.7,5.4,14,0.00,,,0.00,WUHU216WMR968SP,2013-08-22 21:07:00,
2013-08-22 14:13:00,82.2,28.2,29.82,West,277,2.7,6.3,14,0.00,,,0.00,WUHU216WMR968SP,2013-08-22 21:13:00,
2013-08-22 14:18:00,82.2,28.2,29.82,NW,318,3.1,6.3,14,0.00,,,0.00,WUHU216WMR968SP,2013-08-22 21:18:00,
2013-08-22 14:23:00,82.2,28.2,29.82,West,269,0.0,5.4,14,0.00,,,0.00,WUHU216WMR968SP,2013-08-22 21:23:00,
2013-08-22 14:28:00,81.9,27.9,29.82,WSW,245,4.5,8.1,14,0.00,,,0.00,WUHU216WMR968SP,2013-08-22 21:28:00,
2013-08-22 14:33:00,80.6,26.9,29.82,WNW,285,0.0,8.1,14,0.00,,,0.00,WUHU216WMR968SP,2013-08-22 21:33:00,
2013-08-22 14:38:00,80.2,28.3,29.82,North,10,2.2,7.2,15,0.00,,,0.00,WUHU216WMR968SP,2013-08-22 21:38:00,
2013-08-22 14:43:00,80.1,28.2,29.82,WSW,242,2.7,5.4,15,0.00,,,0.00,WUHU216WMR968SP,2013-08-22 21:43:00,
2013-08-22 14:48:00,80.2,28.3,29.82,WNW,295,2.7,5.4,15,0.00,,,0.00,WUHU216WMR968SP,2013-08-22 21:48:00,
2013-08-22 14:53:00,79.3,27.6,29.82,SW,234,0.0,5.4,15,0.00,,,0.00,WUHU216WMR968SP,2013-08-22 21:53:00,
2013-08-22 14:58:00,79.0,27.3,29.82,WSW,252,0.0,3.6,15,0.00,,,0.00,WUHU216WMR968SP,2013-08-22 21:58:00,
2013-08-22 15:03:00,78.8,27.2,29.82,WNW,291,2.2,3.6,15,0.00,,,0.00,WUHU216WMR968SP,2013-08-22 22:03:00,
2013-08-22 15:08:00,78.4,26.9,29.82,SW,236,2.7,3.6,15,0.00,,,0.00,WUHU216WMR968SP,2013-08-22 22:08:00,
2013-08-22 15:13:00,78.4,32.0,29.82,WNW,298,0.0,3.6,18,0.00,,,0.00,WUHU216WMR968SP,2013-08-22 22:13:00,
2013-08-22 15:18:00,78.6,32.0,29.82,West,262,0.0,3.1,18,0.00,,,0.00,WUHU216WMR968SP,2013-08-22 22:18:00,
2013-08-22 15:23:00,78.6,32.0,29.82,SW,236,0.0,3.6,18,0.00,,,0.00,WUHU216WMR968SP,2013-08-22 22:23:00,
2013-08-22 15:28:00,78.8,30.3,29.82,NNW,339,0.0,3.6,17,0.00,,,0.00,WUHU216WMR968SP,2013-08-22 22:28:00,
2013-08-22 15:33:00,78.6,32.0,29.82,NW,325,0.0,3.1,18,0.00,,,0.00,WUHU216WMR968SP,2013-08-22 22:33:00,
2013-08-22 15:38:00,78.1,32.0,29.82,NW,324,0.0,0.0,18,0.00,,,0.00,WUHU216WMR968SP,2013-08-22 22:38:00,
2013-08-22 15:43:00,77.9,32.0,29.82,NW,325,0.0,0.0,18,0.00,,,0.00,WUHU216WMR968SP,2013-08-22 22:43:00,
2013-08-22 15:48:00,77.4,30.5,29.82,NW,325,0.0,0.0,18,0.00,,,0.00,WUHU216WMR968SP,2013-08-22 22:48:00,
2013-08-22 15:53:00,77.2,30.4,29.82,NW,325,0.0,0.0,18,0.00,,,0.00,WUHU216WMR968SP,2013-08-22 22:53:00,
2013-08-22 15:58:00,77.2,30.4,29.82,NW,325,0.0,0.0,18,0.00,,,0.00,WUHU216WMR968SP,2013-08-22 22:58:00,
2013-08-22 16:03:00,77.0,30.2,29.82,NW,324,0.0,0.0,18,0.00,,,0.00,WUHU216WMR968SP,2013-08-22 23:03:00,
2013-08-22 16:08:00,77.0,30.2,29.82,NW,325,0.0,0.0,18,0.00,,,0.00,WUHU216WMR968SP,2013-08-22 23:08:00,
2013-08-22 16:13:00,77.0,30.2,29.82,NW,325,0.0,0.0,18,0.00,,,0.00,WUHU216WMR968SP,2013-08-22 23:13:00,
2013-08-22 16:18:00,77.0,33.8,29.82,NW,324,0.0,0.0,20,0.00,,,0.00,WUHU216WMR968SP,2013-08-22 23:18:00,
2013-08-22 16:23:00,76.3,33.8,29.82,NW,325,0.0,0.0,20,0.00,,,0.00,WUHU216WMR968SP,2013-08-22 23:23:00,
2013-08-22 16:28:00,75.9,32.0,29.82,NW,325,0.0,0.0,20,0.00,,,0.00,WUHU216WMR968SP,2013-08-22 23:28:00,
2013-08-22 16:33:00,75.4,32.0,29.82,NW,325,0.0,0.0,21,0.00,,,0.00,WUHU216WMR968SP,2013-08-22 23:33:00,
2013-08-22 16:38:00,74.5,32.0,29.82,NW,325,0.0,0.0,21,0.00,,,0.00,WUHU216WMR968SP,2013-08-22 23:38:00,
2013-08-22 16:43:00,73.8,32.0,29.82,NW,325,0.0,0.0,21,0.00,,,0.00,WUHU216WMR968SP,2013-08-22 23:43:00,
2013-08-22 16:48:00,73.9,32.0,29.82,NNW,335,0.0,0.0,21,0.00,,,0.00,WUHU216WMR968SP,2013-08-22 23:48:00,
2013-08-22 16:53:00,74.3,32.0,29.82,NE,54,0.0,2.7,21,0.00,,,0.00,WUHU216WMR968SP,2013-08-22 23:53:00,
2013-08-22 16:58:00,74.8,32.0,29.82,NE,36,0.0,4.0,21,0.00,,,0.00,WUHU216WMR968SP,2013-08-22 23:58:00,
2013-08-22 17:03:00,75.0,32.0,29.82,NE,37,0.0,4.0,21,0.00,,,0.00,WUHU216WMR968SP,2013-08-23 00:03:00,
2013-08-22 17:08:00,74.7,32.0,29.82,ESE,120,0.0,2.7,21,0.00,,,0.00,WUHU216WMR968SP,2013-08-23 00:08:00,
2013-08-22 17:13:00,74.7,32.0,29.82,ESE,105,0.0,3.6,21,0.00,,,0.00,WUHU216WMR968SP,2013-08-23 00:13:00,
2013-08-22 17:18:00,74.8,32.0,29.82,ESE,112,0.0,4.0,21,0.00,,,0.00,WUHU216WMR968SP,2013-08-23 00:18:00,
2013-08-22 17:23:00,74.8,32.0,29.79,ESE,113,3.1,6.3,21,0.00,,,0.00,WUHU216WMR968SP,2013-08-23 00:23:00,
2013-08-22 17:28:00,74.8,32.0,29.79,ESE,114,3.6,6.3,21,0.00,,,0.00,WUHU216WMR968SP,2013-08-23 00:28:00,
2013-08-22 17:33:00,74.7,32.0,29.79,ESE,123,3.6,5.8,21,0.00,,,0.00,WUHU216WMR968SP,2013-08-23 00:33:00,
2013-08-22 17:38:00,74.5,32.0,29.79,ESE,122,0.0,7.6,21,0.00,,,0.00,WUHU216WMR968SP,2013-08-23 00:38:00,
2013-08-22 17:43:00,74.1,32.0,29.79,ENE,66,2.2,7.6,21,0.00,,,0.00,WUHU216WMR968SP,2013-08-23 00:43:00,
2013-08-22 17:48:00,73.9,32.0,29.79,SE,125,0.0,4.0,21,0.00,,,0.00,WUHU216WMR968SP,2013-08-23 00:48:00,
2013-08-22 17:53:00,73.6,32.0,29.79,ENE,71,0.0,4.0,22,0.00,,,0.00,WUHU216WMR968SP,2013-08-23 00:53:00,
2013-08-22 17:58:00,73.4,32.0,29.79,SE,129,2.7,7.2,22,0.00,,,0.00,WUHU216WMR968SP,2013-08-23 00:58:00,
2013-08-22 18:03:00,73.2,32.0,29.79,SE,133,2.2,7.2,22,0.00,,,0.00,WUHU216WMR968SP,2013-08-23 01:03:00,
2013-08-22 18:08:00,73.2,32.0,29.79,ESE,116,0.0,4.5,22,0.00,,,0.00,WUHU216WMR968SP,2013-08-23 01:08:00,
2013-08-22 18:13:00,73.2,32.0,29.79,ESE,115,0.0,3.6,22,0.00,,,0.00,WUHU216WMR968SP,2013-08-23 01:13:00,
2013-08-22 18:18:00,73.2,32.0,29.79,ESE,116,0.0,0.0,22,0.00,,,0.00,WUHU216WMR968SP,2013-08-23 01:18:00,
2013-08-22 18:23:00,73.4,32.0,29.79,ESE,116,0.0,0.0,22,0.00,,,0.00,WUHU216WMR968SP,2013-08-23 01:23:00,
2013-08-22 18:28:00,73.4,32.0,29.79,ESE,117,0.0,3.1,22,0.00,,,0.00,WUHU216WMR968SP,2013-08-23 01:28:00,
2013-08-22 18:33:00,73.4,32.0,29.79,ENE,71,0.0,3.1,22,0.00,,,0.00,WUHU216WMR968SP,2013-08-23 01:33:00,
2013-08-22 18:38:00,73.4,32.0,29.79,NE,42,2.2,3.1,22,0.00,,,0.00,WUHU216WMR968SP,2013-08-23 01:38:00,
2013-08-22 18:43:00,73.4,33.8,29.79,NE,43,0.0,3.1,23,0.00,,,0.00,WUHU216WMR968SP,2013-08-23 01:43:00,
2013-08-22 18:48:00,73.2,33.8,29.79,NE,43,0.0,0.0,24,0.00,,,0.00,WUHU216WMR968SP,2013-08-23 01:48:00,
2013-08-22 18:53:00,72.7,33.8,29.79,NE,43,0.0,0.0,24,0.00,,,0.00,WUHU216WMR968SP,2013-08-23 01:53:00,
2013-08-22 18:58:00,72.3,33.8,29.79,NE,55,0.0,0.0,24,0.00,,,0.00,WUHU216WMR968SP,2013-08-23 01:58:00,
2013-08-22 19:03:00,72.0,33.8,29.79,East,92,0.0,3.1,25,0.00,,,0.00,WUHU216WMR968SP,2013-08-23 02:03:00,
2013-08-22 19:08:00,72.0,33.8,29.82,East,92,0.0,3.1,25,0.00,,,0.00,WUHU216WMR968SP,2013-08-23 02:08:00,
2013-08-22 19:13:00,72.0,33.8,29.82,East,91,0.0,0.0,25,0.00,,,0.00,WUHU216WMR968SP,2013-08-23 02:13:00,
2013-08-22 19:18:00,71.8,35.6,29.82,NE,49,2.2,3.6,26,0.00,,,0.00,WUHU216WMR968SP,2013-08-23 02:18:00,
2013-08-22 19:23:00,71.8,35.6,29.82,NE,49,0.0,3.6,26,0.00,,,0.00,WUHU216WMR968SP,2013-08-23 02:23:00,
2013-08-22 19:28:00,71.6,35.6,29.82,ESE,106,0.0,3.6,27,0.00,,,0.00,WUHU216WMR968SP,2013-08-23 02:28:00,
2013-08-22 19:33:00,71.2,37.4,29.82,ESE,107,0.0,3.6,28,0.00,,,0.00,WUHU216WMR968SP,2013-08-23 02:33:00,
2013-08-22 19:38:00,71.1,37.4,29.82,ESE,106,0.0,0.0,28,0.00,,,0.00,WUHU216WMR968SP,2013-08-23 02:38:00,
2013-08-22 19:43:00,70.9,37.4,29.82,ESE,106,0.0,0.0,29,0.00,,,0.00,WUHU216WMR968SP,2013-08-23 02:43:00,
2013-08-22 19:48:00,70.7,37.4,29.82,ESE,106,0.0,0.0,29,0.00,,,0.00,WUHU216WMR968SP,2013-08-23 02:48:00,
2013-08-22 19:53:00,70.3,37.4,29.82,ESE,107,0.0,0.0,31,0.00,,,0.00,WUHU216WMR968SP,2013-08-23 02:53:00,
2013-08-22 19:58:00,70.2,39.2,29.82,ESE,107,0.0,0.0,32,0.00,,,0.00,WUHU216WMR968SP,2013-08-23 02:58:00,
2013-08-22 20:03:00,70.0,39.2,29.82,ESE,104,0.0,0.0,32,0.00,,,0.00,WUHU216WMR968SP,2013-08-23 03:03:00,
2013-08-22 20:08:00,70.0,39.2,29.82,ESE,105,0.0,0.0,32,0.00,,,0.00,WUHU216WMR968SP,2013-08-23 03:08:00,
2013-08-22 20:13:00,70.0,39.2,29.82,ESE,104,0.0,0.0,32,0.00,,,0.00,WUHU216WMR968SP,2013-08-23 03:13:00,
2013-08-22 20:18:00,69.8,39.2,29.82,ESE,104,0.0,0.0,32,0.00,,,0.00,WUHU216WMR968SP,2013-08-23 03:18:00,
2013-08-22 20:23:00,70.0,39.2,29.85,ENE,61,0.0,3.6,32,0.00,,,0.00,WUHU216WMR968SP,2013-08-23 03:23:00,
2013-08-22 20:28:00,69.8,39.2,29.85,ENE,61,0.0,3.6,32,0.00,,,0.00,WUHU216WMR968SP,2013-08-23 03:28:00,
2013-08-22 20:33:00,69.8,39.2,29.85,ENE,61,0.0,0.0,32,0.00,,,0.00,WUHU216WMR968SP,2013-08-23 03:33:00,
2013-08-22 20:38:00,69.6,39.2,29.85,ENE,61,0.0,0.0,33,0.00,,,0.00,WUHU216WMR968SP,2013-08-23 03:38:00,
2013-08-22 20:43:00,69.4,39.2,29.85,ENE,61,0.0,0.0,33,0.00,,,0.00,WUHU216WMR968SP,2013-08-23 03:43:00,
2013-08-22 20:48:00,69.3,39.2,29.85,ENE,61,0.0,0.0,33,0.00,,,0.00,WUHU216WMR968SP,2013-08-23 03:48:00,
2013-08-22 20:53:00,69.1,39.2,29.85,ENE,61,0.0,0.0,33,0.00,,,0.00,WUHU216WMR968SP,2013-08-23 03:53:00,
2013-08-22 20:58:00,69.1,39.2,29.85,ENE,61,0.0,0.0,33,0.00,,,0.00,WUHU216WMR968SP,2013-08-23 03:58:00,
2013-08-22 21:01:00,69.1,39.2,29.85,ENE,61,0.0,0.0,33,0.00,,,0.00,WUHU216WMR968SP,2013-08-23 04:01:00,
2013-08-22 21:06:00,68.7,39.2,29.85,ENE,61,0.0,0.0,34,0.00,,,0.00,WUHU216WMR968SP,2013-08-23 04:06:00,
2013-08-22 21:11:00,68.4,39.2,29.85,ENE,61,0.0,0.0,34,0.00,,,0.00,WUHU216WMR968SP,2013-08-23 04:11:00,
2013-08-22 21:16:00,68.4,39.2,29.85,ENE,61,0.0,0.0,34,0.00,,,0.00,WUHU216WMR968SP,2013-08-23 04:16:00,
2013-08-22 21:21:00,68.4,39.2,29.85,ENE,61,0.0,0.0,34,0.00,,,0.00,WUHU216WMR968SP,2013-08-23 04:21:00,
2013-08-22 21:26:00,68.4,39.2,29.85,SE,125,0.0,0.0,35,0.00,,,0.00,WUHU216WMR968SP,2013-08-23 04:26:00,
2013-08-22 21:31:00,68.2,39.2,29.85,SE,125,0.0,2.7,35,0.00,,,0.00,WUHU216WMR968SP,2013-08-23 04:31:00,
2013-08-22 21:36:00,68.2,39.2,29.85,SE,125,0.0,2.7,35,0.00,,,0.00,WUHU216WMR968SP,2013-08-23 04:36:00,
2013-08-22 21:41:00,67.8,39.2,29.85,SE,125,0.0,0.0,35,0.00,,,0.00,WUHU216WMR968SP,2013-08-23 04:41:00,
2013-08-22 21:46:00,67.8,41.0,29.85,SE,125,0.0,0.0,36,0.00,,,0.00,WUHU216WMR968SP,2013-08-23 04:46:00,
2013-08-22 21:51:00,67.8,41.0,29.85,East,90,0.0,0.0,36,0.00,,,0.00,WUHU216WMR968SP,2013-08-23 04:51:00,
2013-08-22 21:56:00,68.0,41.0,29.85,East,90,0.0,0.0,36,0.00,,,0.00,WUHU216WMR968SP,2013-08-23 04:56:00,
2013-08-22 22:01:00,68.2,41.0,29.85,East,90,0.0,0.0,36,0.00,,,0.00,WUHU216WMR968SP,2013-08-23 05:01:00,
2013-08-22 22:06:00,68.4,41.0,29.85,NW,306,0.0,2.2,36,0.00,,,0.00,WUHU216WMR968SP,2013-08-23 05:06:00,
2013-08-22 22:11:00,68.4,41.0,29.85,West,271,0.0,2.2,36,0.00,,,0.00,WUHU216WMR968SP,2013-08-23 05:11:00,
2013-08-22 22:16:00,68.2,39.2,29.85,West,271,0.0,0.0,35,0.00,,,0.00,WUHU216WMR968SP,2013-08-23 05:16:00,
2013-08-22 22:21:00,68.0,39.2,29.85,NW,311,0.0,0.0,35,0.00,,,0.00,WUHU216WMR968SP,2013-08-23 05:21:00,
2013-08-22 22:26:00,67.8,39.2,29.85,NW,311,0.0,0.0,34,0.00,,,0.00,WUHU216WMR968SP,2013-08-23 05:26:00,
2013-08-22 22:31:00,67.8,37.4,29.85,NW,311,0.0,0.0,33,0.00,,,0.00,WUHU216WMR968SP,2013-08-23 05:31:00,
2013-08-22 22:36:00,67.6,37.4,29.85,NW,311,0.0,0.0,33,0.00,,,0.00,WUHU216WMR968SP,2013-08-23 05:36:00,
2013-08-22 22:41:00,67.5,37.4,29.85,NW,311,0.0,0.0,33,0.00,,,0.00,WUHU216WMR968SP,2013-08-23 05:41:00,
2013-08-22 22:46:00,67.3,39.2,29.85,NW,311,0.0,0.0,34,0.00,,,0.00,WUHU216WMR968SP,2013-08-23 05:46:00,
2013-08-22 22:51:00,66.9,37.4,29.85,NW,311,0.0,0.0,34,0.00,,,0.00,WUHU216WMR968SP,2013-08-23 05:51:00,
2013-08-22 22:56:00,66.7,37.4,29.85,NW,311,0.0,0.0,34,0.00,,,0.00,WUHU216WMR968SP,2013-08-23 05:56:00,
2013-08-22 23:01:00,66.6,37.4,29.85,NW,311,0.0,0.0,34,0.00,,,0.00,WUHU216WMR968SP,2013-08-23 06:01:00,
2013-08-22 23:06:00,66.2,37.4,29.85,NW,311,0.0,0.0,34,0.00,,,0.00,WUHU216WMR968SP,2013-08-23 06:06:00,
2013-08-22 23:11:00,66.0,37.4,29.85,NW,311,0.0,0.0,34,0.00,,,0.00,WUHU216WMR968SP,2013-08-23 06:11:00,
2013-08-22 23:16:00,66.0,37.4,29.85,NW,311,0.0,0.0,34,0.00,,,0.00,WUHU216WMR968SP,2013-08-23 06:16:00,
2013-08-22 23:21:00,65.8,37.4,29.85,NW,311,0.0,0.0,34,0.00,,,0.00,WUHU216WMR968SP,2013-08-23 06:21:00,
2013-08-22 23:26:00,65.5,37.4,29.85,NW,311,0.0,0.0,35,0.00,,,0.00,WUHU216WMR968SP,2013-08-23 06:26:00,
2013-08-22 23:31:00,64.9,35.6,29.85,NW,311,0.0,0.0,35,0.00,,,0.00,WUHU216WMR968SP,2013-08-23 06:31:00,
2013-08-22 23:36:00,64.9,37.4,29.85,NW,311,0.0,0.0,36,0.00,,,0.00,WUHU216WMR968SP,2013-08-23 06:36:00,
2013-08-22 23:41:00,64.9,37.4,29.85,NW,311,0.0,0.0,36,0.00,,,0.00,WUHU216WMR968SP,2013-08-23 06:41:00,
2013-08-22 23:46:00,64.9,37.4,29.85,NW,311,0.0,0.0,36,0.00,,,0.00,WUHU216WMR968SP,2013-08-23 06:46:00,
2013-08-22 23:51:00,64.9,37.4,29.85,NW,311,0.0,0.0,36,0.00,,,0.00,WUHU216WMR968SP,2013-08-23 06:51:00,
2013-08-22 23:56:00,65.1,35.6,29.85,NW,311,0.0,0.0,35,0.00,,,0.00,WUHU216WMR968SP,2013-08-23 06:56:00,